Location: ????????
(48.4751°N, 37.6926°E)
Time: 20:46:26
(UTC+00:00)

YAOGAN 1 - Pass Details

Date: 20 January 2021
Orbit: 618 x 620 km, 97.9° (Epoch: 01 March)

Event Time Altitude Azimuth Distance (km) Brightness Sun altitude
Rises 15:15:56 0° 138° (SE) 2,889 5.8 -10.9°
Reaches altitude 10° 15:18:17 10° 128° (SE) 1,987 4.8 -11.3°
Maximum altitude 15:22:06 31° 66° (ENE) 1,088 3.3 -11.9°
Drops below altitude 10° 15:25:56 10° 5° (N) 2,000 5.0 -12.5°
Sets 15:28:18 0° 355° (N) 2,911 5.9 -12.9°
